Location: Unspecified
(0.0000°N, 0.0000°E)
Time: 07:04:59
(UTC+00:00)

Explorer 11/Cluster Stage 4 - Visible Passes

Search period start: 21 October 2014 00:00
Search period end: 31 October 2014 00:00
Orbit: 468 x 1281 km, 28.8° (Epoch: 19 October)

Date Brightness Start Highest point End Pass type
(mag) Time Alt. Az. Time Alt. Az. Time Alt. Az.
21 Oct 9.4 03:52:24 12° N 03:56:25 16° NNE 04:01:05 10° ENE visible
21 Oct 5.9 18:31:23 10° SW 18:35:23 74° SSE 18:38:44 19° ENE visible
21 Oct 9.1 20:20:42 10° WNW 20:21:09 12° WNW 20:21:09 12° WNW visible
22 Oct 9.3 03:45:57 15° N 03:49:27 19° NNE 03:54:55 10° ENE visible
22 Oct 5.9 18:24:32 10° WSW 18:28:26 79° NNW 18:32:23 14° NE visible
22 Oct 9.1 20:14:36 10° WNW 20:14:47 11° WNW 20:14:47 11° WNW visible
23 Oct 9.1 03:39:31 19° N 03:42:25 23° NNE 03:48:34 10° ENE visible
23 Oct 6.3 18:17:45 10° WSW 18:21:30 54° NNW 18:25:54 10° NE visible
24 Oct 8.8 03:33:06 24° N 03:35:19 27° NNE 03:42:02 10° E visible
24 Oct 7.7 05:16:58 10° NW 05:25:23 78° NNE 05:33:02 10° ESE visible
24 Oct 6.9 18:11:04 10° W 18:14:34 37° NNW 18:18:34 10° NE visible
25 Oct 8.6 03:26:41 31° N 03:28:09 33° NNE 03:35:21 10° E visible
25 Oct 7.6 05:09:40 10° WNW 05:18:07 89° SSW 05:25:56 10° ESE visible
25 Oct 7.4 18:04:30 10° W 18:07:39 25° NNW 18:11:07 10° NNE visible
26 Oct 8.3 03:20:16 38° NNE 03:20:55 39° NNE 03:28:31 10° E visible
26 Oct 7.6 05:02:39 11° WNW 05:10:49 75° SSW 05:18:45 10° SE visible
27 Oct 8.1 03:13:48 46° NNE 03:13:48 46° NNE 03:21:34 10° E visible
27 Oct 7.7 04:56:12 14° WNW 05:03:30 63° SSW 05:11:27 10° SE visible
28 Oct 8.0 03:07:18 52° NE 03:07:18 52° NE 03:14:30 10° ESE visible
28 Oct 7.9 04:49:42 17° W 04:56:10 52° SSW 05:04:04 10° SE visible
29 Oct 8.0 03:00:45 54° E 03:00:45 54° E 03:07:20 10° ESE visible
29 Oct 8.1 04:43:08 19° W 04:48:51 44° SSW 04:56:36 10° SE visible
30 Oct 8.2 02:54:08 49° ESE 02:54:08 49° ESE 03:00:03 10° ESE visible
30 Oct 8.4 04:36:31 19° W 04:41:33 37° SSW 04:49:03 10° SE visible
